[[{"header":{"parameterUnit":"m.s-1","parameterCategory":1,"la1":30.2991,"la2":30.254,"lo1":-89.0895,"lo2":-89.0444,"dy":0.0017,"dx":0.0017,"nx":28,"ny":28,"refTime":"2025-01-20T03:00:00:Z","depth":0,"parameterNumber":2,"parameterNumberName":"U-component_of_WINDS"},"data":[0,0,0,0,0,0,0,0,0,0,0,0,0,0,0,0,0,0,0,0,0,0,0,0,0,0,0,0,0,0,0,0,0,0,0,0,0,0,0,0,0,0,0,0,0,0,0,0,0,0,0,0,0,0,0,0,0,0,-5.2946,-5.2946,0,-5.2938,-5.2938,-5.2938,-5.2761,-5.2756,-5.2752,-5.2748,-5.2744,-5.2748,-5.2752,0,0,0,0,0,0,0,0,0,0,0,0,0,-5.2809,-5.2813,-5.2946,-5.2946,-5.2946,-5.2938,-5.2938,-5.2938,-5.2762,-5.2756,-5.2751,-5.2745,-5.2742,-5.2747,-5.2752,0,0,0,0,0,0,0,0,0,0,0,0,0,-5.2842,-5.2814,-5.2946,-5.2857,-5.2848,-5.2938,-5.2938,-5.2938,-5.2763,-5.2756,-5.2749,-5.2743,-5.2741,-5.2747,-5.2753,-5.2929,0,0,-5.2772,-5.2775,0,0,0,0,0,0,0,0,-5.2841,-5.2847,-5.287,-5.2863,-5.2854,-5.2843,-5.2888,-5.2935,-5.2765,-5.2796,-5.2747,-5.274,-5.2783,-5.2785,-5.2799,-5.2929,-5.2928,-5.2773,-5.2776,-5.2779,-5.2781,0,0,0,0,0,0,0,-5.2839,-5.2847,-5.2943,-5.287,-5.2861,-5.2818,-5.2815,-5.2897,-5.2828,-5.2792,-5.2779,-5.2781,-5.2777,-5.2793,-5.2798,-5.2928,-5.2773,-5.2778,-5.2782,-5.2784,-5.32,-5.3207,0,0,0,0,0,0,-5.2848,-5.2846,-5.2943,-5.2943,-5.283,-5.2826,-5.2822,-5.2854,-5.2826,-5.2816,-5.2787,-5.2773,-5.2786,-5.279,-5.2797,-5.2999,-5.2779,-5.2785,-5.2789,-5.3192,-5.3201,-5.3209,0,0,0,0,0,0,-5.2846,-5.2859,-5.2943,-5.2891,-5.2898,-5.2835,-5.2872,-5.2857,-5.2873,-5.2822,-5.2809,-5.2816,-5.2781,-5.2788,-5.2896,-5.2996,-5.2788,-5.2793,-5.3184,-5.3195,-5.3205,-5.3406,0,0,0,0,0,0,-5.2843,-5.2859,-5.2925,-5.2894,-5.2902,-5.3043,-5.2878,-5.2862,-5.2884,-5.2865,-5.2846,-5.2836,-5.2776,-5.2888,-5.2903,-5.3001,-5.2798,-5.3175,-5.3189,-5.3202,-5.3391,-5.3423,-5.3451,0,0,0,0,0,-5.2839,-5.2983,-5.2929,-5.2942,-5.2983,-5.3049,-5.3054,-5.2981,-5.2893,-5.2958,-5.2925,-5.2837,-5.2983,-5.2901,-5.2916,-5.3018,-5.3168,-5.3185,-5.3201,-5.3377,-5.3417,-5.345,0,0,0,0,0,0,-5.3029,-5.2977,-5.2917,-5.3055,-5.3058,-5.3019,-5.31,-5.3025,-5.3054,-5.3036,-5.2945,-5.2942,-5.3065,-5.3052,-5.2961,-5.3185,-5.306,-5.308,-5.3189,-5.3226,-5.3255,-5.3256,-5.2804,0,0,0,0,0,-5.3087,-5.3145,-5.3097,-5.3224,-5.3228,-5.3164,-5.3191,-5.3134,-5.3133,-5.3134,-5.3109,-5.3113,-5.3159,-5.3192,-5.3232,-5.3388,-5.338,-5.3465,-5.3495,-5.352,-5.3539,-5.3618,-5.3655,-5.3263,-5.3263,-5.3263,0,0,-5.3208,-5.3187,-5.3229,-5.3261,-5.3256,-5.3319,-5.3166,-5.3239,-5.3284,-5.3145,-5.3245,-5.3227,-5.3226,-5.3358,-5.3415,-5.3351,-5.3645,-5.3541,-5.3561,-5.3566,-5.3639,-5.3676,-5.3709,-5.3274,-5.3272,-5.327,0,0,-5.3459,-5.345,-5.3553,-5.3551,-5.3545,-5.3501,-5.3526,-5.3499,-5.3481,-5.3579,-5.3476,-5.3529,-5.3612,-5.3614,-5.3626,-5.3877,-5.3796,-5.3893,-5.4049,-5.4128,-5.4159,-5.4186,-5.4274,-5.4307,-5.3911,-5.3912,-5.3912,0,-5.3611,-5.3699,-5.3616,-5.3695,-5.3712,-5.3587,-5.3691,-5.3693,-5.3702,-5.3717,-5.3645,-5.3744,-5.3734,-5.3865,-5.3926,-5.394,-5.3966,-5.3894,-5.4161,-5.4187,-5.4211,-5.4294,-5.4328,-5.3923,-5.3922,-5.3921,-5.392,0,-5.3884,-5.3947,-5.4032,-5.404,-5.4067,-5.4159,-5.409,-5.4127,-5.4067,-5.4032,-5.4133,-5.4117,-5.4151,-5.4178,-5.4122,-5.43,-5.4261,-5.4177,-5.4049,-5.4262,-5.4338,-5.4369,-5.394,-5.3936,-5.3932,-5.393,0,0,-5.4257,-5.4217,-5.4249,-5.4251,-5.4234,-5.4281,-5.4367,-5.4398,-5.4431,-5.4441,-5.451,-5.4582,-5.4503,-5.4518,-5.446,-5.453,-5.4728,-5.4436,-5.4435,-5.449,-5.4922,-5.4985,-5.5023,-5.4674,-5.468,-5.4685,-5.4922,0,-5.4498,-5.464,-5.4567,-5.4719,-5.4775,-5.4657,-5.4731,-5.473,-5.4699,-5.4742,-5.4708,-5.476,-5.4653,-5.466,-5.4724,-5.4691,-5.4813,-5.4672,-5.4738,-5.4741,-5.4741,-5.5063,-5.513,-5.5355,-5.4952,-5.4957,-5.496,0,-5.4799,-5.4819,-5.4976,-5.4947,-5.4968,-5.5036,-5.5058,-5.5101,-5.5097,-5.5069,-5.5084,-5.501,-5.5092,-5.4966,-5.5077,-5.4983,-5.5005,-5.4993,-5.5,-5.5003,-5.4863,-5.5074,-5.5425,-5.5459,-5.5007,-5.5003,-5.5,0,-5.5053,-5.512,-5.5221,-5.5227,-5.5196,-5.5246,-5.5236,-5.5224,-5.5247,-5.5267,-5.5281,-5.5311,-5.5328,-5.5353,-5.5289,-5.5203,-5.5409,-5.5277,-5.5388,-5.539,-5.5436,-5.5434,-5.5795,-5.5453,-5.5453,-5.5452,-5.5451,0,-5.533,-5.5431,-5.5335,-5.5398,-5.5506,-5.5422,-5.5532,-5.5509,-5.55,-5.5556,-5.5456,-5.5512,-5.5424,-5.5471,-5.5422,-5.5521,-5.553,-5.5509,-5.5495,-5.5518,-5.552,-5.5531,-5.5513,-5.5461,-5.5459,-5.5457,-5.5456,0,-5.5632,-5.5572,-5.5675,-5.5636,-5.5629,-5.5711,-5.5678,-5.5735,-5.5696,-5.5768,-5.5781,-5.5721,-5.577,-5.5709,-5.5754,-5.572,-5.5855,-5.5818,-5.5856,-5.5845,-5.5958,-5.5948,-5.6338,-5.6384,-5.6014,-5.6018,-5.6021,0,-5.5813,-5.5886,-5.5855,-5.5884,-5.5879,-5.5929,-5.5951,-5.5871,-5.5898,-5.5897,-5.5954,-5.5995,-5.6023,-5.6108,-5.6069,-5.6103,-5.6065,-5.6199,-5.607,-5.609,-5.6065,-5.6061,-5.6068,-5.6226,-5.623,-5.6234,-5.6237,0,-5.6138,-5.6104,-5.6139,-5.6163,-5.6192,-5.6208,-5.6216,-5.6247,-5.6162,-5.6198,-5.6247,-5.6269,-5.6313,-5.6355,-5.6377,-5.6367,-5.6289,-5.6278,-5.6305,-5.6329,-5.6347,-5.6337,-5.5927,-5.6269,-5.6266,-5.6264,-5.6262,-5.6261,-5.6384,-5.6443,-5.6429,-5.6471,-5.6468,-5.6478,-5.6528,-5.6495,-5.6533,-5.6562,-5.6513,-5.6574,-5.6566,-5.6588,-5.6587,-5.6634,-5.6576,-5.6616,-5.6625,-5.6636,-5.6653,-5.6341,-5.6638,-5.6637,-5.6636,-5.6635,-5.6634,0,-5.6702,-5.6687,-5.6726,-5.674,-5.6773,-5.6694,-5.6699,-5.6732,-5.6786,-5.6785,-5.6814,-5.6869,-5.6909,-5.6873,-5.6905,-5.695,-5.6914,-5.6961,-5.6956,-5.6955,-5.6703,-5.6676,-5.6989,-5.6989,-5.6988,-5.6988,-5.6988,-5.6988,-5.6872,-5.6967,-5.6932,-5.7025,-5.7009,-5.7066,-5.7076,-5.7084,-5.7082,-5.7148,-5.7179,-5.7155,-5.7139,-5.717,-5.7203,-5.7191,-5.7207,-5.7266,-5.7242,-5.7008,-5.6973,-5.694,-5.6913,-5.7271,-5.7271,-5.7489,-5.7491,-5.7493]},{"header":{"parameterUnit":"m.s-1","parameterCategory":1,"la1":30.2991,"la2":30.254,"lo1":-89.0895,"lo2":-89.0444,"dy":0.0017,"dx":0.0017,"nx":28,"ny":28,"refTime":"2025-01-20T03:00:00:Z","depth":0,"parameterNumber":3,"parameterNumberName":"V-component_of_WINDS"},"data":[0,0,0,0,0,0,0,0,0,0,0,0,0,0,0,0,0,0,0,0,0,0,0,0,0,0,0,0,0,0,0,0,0,0,0,0,0,0,0,0,0,0,0,0,0,0,0,0,0,0,0,0,0,0,0,0,0,0,-5.0427,-5.0427,0,-5.0483,-5.0484,-5.0484,-5.0421,-5.0419,-5.0416,-5.0414,-5.0469,-5.0472,-5.0476,0,0,0,0,0,0,0,0,0,0,0,0,0,-5.0261,-5.0264,-5.0427,-5.0427,-5.0428,-5.0483,-5.0484,-5.0484,-5.0421,-5.0419,-5.0416,-5.0413,-5.0467,-5.0472,-5.0476,0,0,0,0,0,0,0,0,0,0,0,0,0,-5.0326,-5.0265,-5.0427,-5.0403,-5.0402,-5.0483,-5.0484,-5.0485,-5.0422,-5.0418,-5.0415,-5.0412,-5.0466,-5.0471,-5.0477,-5.0582,0,0,-5.0494,-5.0496,0,0,0,0,0,0,0,0,-5.0323,-5.0333,-5.0406,-5.0405,-5.0404,-5.0441,-5.0445,-5.0517,-5.0423,-5.0414,-5.0414,-5.041,-5.0462,-5.0468,-5.0486,-5.0585,-5.0587,-5.0494,-5.0497,-5.05,-5.0501,0,0,0,0,0,0,0,-5.0318,-5.033,-5.0449,-5.0407,-5.0406,-5.0389,-5.0394,-5.0458,-5.0457,-5.0415,-5.041,-5.0418,-5.0461,-5.0481,-5.0487,-5.0588,-5.0494,-5.0499,-5.0502,-5.0504,-5.0773,-5.0777,0,0,0,0,0,0,-5.0317,-5.0326,-5.0447,-5.045,-5.0354,-5.0395,-5.0401,-5.0433,-5.0457,-5.0457,-5.0421,-5.0415,-5.0473,-5.0481,-5.0489,-5.0612,-5.05,-5.0505,-5.0508,-5.077,-5.0774,-5.0778,0,0,0,0,0,0,-5.0314,-5.0328,-5.0445,-5.0387,-5.0401,-5.0401,-5.0438,-5.0436,-5.0456,-5.0461,-5.0461,-5.0442,-5.0471,-5.0481,-5.0559,-5.0613,-5.0507,-5.0512,-5.0765,-5.0771,-5.0776,-5.0861,0,0,0,0,0,0,-5.0309,-5.0328,-5.0369,-5.0389,-5.0404,-5.0516,-5.0441,-5.0439,-5.0466,-5.0458,-5.0481,-5.0481,-5.0469,-5.0551,-5.0565,-5.0619,-5.0517,-5.076,-5.0768,-5.0774,-5.0853,-5.0869,-5.0882,0,0,0,0,0,-5.0303,-5.039,-5.0371,-5.0386,-5.0456,-5.0519,-5.0528,-5.0513,-5.0471,-5.0511,-5.0514,-5.048,-5.0605,-5.056,-5.0574,-5.0631,-5.0757,-5.0766,-5.0774,-5.0846,-5.0865,-5.0882,0,0,0,0,0,0,-5.0376,-5.0392,-5.0371,-5.0467,-5.0492,-5.0508,-5.0559,-5.0533,-5.057,-5.0561,-5.054,-5.0546,-5.0629,-5.0638,-5.0587,-5.0733,-5.0674,-5.0686,-5.0724,-5.0742,-5.0756,-5.0752,-5.0521,0,0,0,0,0,-5.0403,-5.0454,-5.0465,-5.0549,-5.0562,-5.0559,-5.0586,-5.0572,-5.0596,-5.0606,-5.0615,-5.064,-5.0684,-5.0714,-5.0755,-5.0854,-5.0857,-5.09,-5.0915,-5.0926,-5.0936,-5.0987,-5.1006,-5.0807,-5.0807,-5.0806,0,0,-5.0459,-5.0475,-5.0508,-5.0564,-5.0581,-5.0633,-5.0568,-5.0626,-5.0664,-5.0615,-5.0689,-5.0697,-5.0722,-5.0811,-5.085,-5.0821,-5.0992,-5.0937,-5.0947,-5.095,-5.0998,-5.1017,-5.1034,-5.0813,-5.0812,-5.0811,0,0,-5.0588,-5.0606,-5.0676,-5.0696,-5.0723,-5.072,-5.0737,-5.0757,-5.076,-5.0835,-5.0798,-5.0842,-5.092,-5.0939,-5.0959,-5.1094,-5.1063,-5.1108,-5.1183,-5.1233,-5.1248,-5.1262,-5.1308,-5.1325,-5.1118,-5.1118,-5.1118,0,-5.0654,-5.0732,-5.0716,-5.0776,-5.0801,-5.076,-5.083,-5.0849,-5.0888,-5.0905,-5.0872,-5.0967,-5.0982,-5.1073,-5.1106,-5.1124,-5.1141,-5.1105,-5.1248,-5.1261,-5.1274,-5.1318,-5.1335,-5.1123,-5.1123,-5.1122,-5.1122,0,-5.0811,-5.0866,-5.0919,-5.0959,-5.099,-5.1055,-5.1046,-5.1079,-5.1062,-5.1062,-5.1137,-5.1153,-5.1196,-5.1217,-5.1201,-5.1306,-5.1287,-5.1251,-5.1191,-5.1298,-5.1339,-5.1356,-5.1131,-5.1129,-5.1127,-5.1126,0,0,-5.0987,-5.1017,-5.1036,-5.1053,-5.108,-5.1121,-5.1183,-5.1226,-5.1254,-5.1282,-5.1333,-5.1399,-5.1365,-5.1388,-5.1374,-5.1418,-5.1522,-5.1377,-5.1377,-5.1402,-5.1636,-5.1661,-5.1681,-5.1502,-5.1505,-5.1508,-5.1633,0,-5.1115,-5.1224,-5.1211,-5.1314,-5.1363,-5.1324,-5.1378,-5.14,-5.1401,-5.1442,-5.1443,-5.1489,-5.1443,-5.1456,-5.1498,-5.15,-5.1568,-5.1491,-5.1547,-5.1549,-5.154,-5.1703,-5.173,-5.1847,-5.1649,-5.1652,-5.1654,0,-5.1279,-5.1314,-5.1423,-5.1441,-5.1461,-5.151,-5.1547,-5.1587,-5.161,-5.1607,-5.1632,-5.161,-5.167,-5.161,-5.1692,-5.164,-5.1662,-5.1667,-5.1671,-5.1674,-5.1607,-5.1709,-5.1885,-5.1902,-5.1679,-5.1677,-5.1675,0,-5.1394,-5.1468,-5.1542,-5.1558,-5.1582,-5.1616,-5.1628,-5.1647,-5.1673,-5.1705,-5.1722,-5.176,-5.1781,-5.1811,-5.1799,-5.1756,-5.1882,-5.1822,-5.1881,-5.1881,-5.1908,-5.1906,-5.2088,-5.1925,-5.1925,-5.1924,-5.1924,0,-5.1538,-5.1605,-5.1594,-5.164,-5.1713,-5.1696,-5.177,-5.1776,-5.1794,-5.1838,-5.1807,-5.1849,-5.1832,-5.1873,-5.1863,-5.1932,-5.1942,-5.194,-5.1937,-5.1942,-5.1942,-5.1955,-5.1946,-5.1929,-5.1928,-5.1927,-5.1926,0,-5.1678,-5.1674,-5.1751,-5.1767,-5.1773,-5.1827,-5.1839,-5.1881,-5.188,-5.1937,-5.1949,-5.1947,-5.1993,-5.1984,-5.2035,-5.2029,-5.2114,-5.2101,-5.2106,-5.2103,-5.2161,-5.2155,-5.2357,-5.2382,-5.2204,-5.2206,-5.2207,0,-5.1769,-5.182,-5.1842,-5.187,-5.1884,-5.193,-5.1956,-5.1941,-5.1969,-5.1998,-5.2036,-5.208,-5.2114,-5.2189,-5.2191,-5.223,-5.2216,-5.2284,-5.2222,-5.2225,-5.2215,-5.2212,-5.2216,-5.2296,-5.2298,-5.23,-5.2301,0,-5.1931,-5.1926,-5.1965,-5.2004,-5.2037,-5.2066,-5.2093,-5.2117,-5.2104,-5.2137,-5.2184,-5.2211,-5.2263,-5.2306,-5.2341,-5.2351,-5.2324,-5.2321,-5.2336,-5.2342,-5.2342,-5.2341,-5.2138,-5.2316,-5.2315,-5.2314,-5.2313,-5.2312,-5.2048,-5.2091,-5.2112,-5.2157,-5.2175,-5.22,-5.224,-5.2244,-5.2283,-5.2325,-5.2313,-5.2366,-5.2386,-5.2431,-5.2445,-5.2485,-5.246,-5.2483,-5.2488,-5.2493,-5.25,-5.2337,-5.2492,-5.2492,-5.2491,-5.2491,-5.249,0,-5.2206,-5.2218,-5.2259,-5.2297,-5.2332,-5.2305,-5.2332,-5.2362,-5.241,-5.2431,-5.2465,-5.2519,-5.256,-5.2565,-5.2604,-5.2635,-5.2623,-5.2645,-5.2642,-5.2644,-5.2521,-5.2503,-5.2654,-5.2654,-5.2654,-5.2654,-5.2654,-5.2654,-5.2292,-5.2363,-5.236,-5.2439,-5.245,-5.2502,-5.252,-5.2542,-5.2559,-5.262,-5.2655,-5.2658,-5.2673,-5.2712,-5.2748,-5.2748,-5.2763,-5.279,-5.2785,-5.267,-5.2653,-5.2638,-5.2621,-5.2794,-5.2794,-5.2905,-5.2906,-5.2907]}]]